• In Hungary
  • List of Countries
  • For 7 days
  • Water Temperature
  • Satellite Maps
  • Weather Map
  • News
  • Weather Widgets
  • user-avatar
    Login

    Hourly Weather Barvinkiv

    Today, 16 January, Tuesday

    Time Temperature Precipitation Wind Pressure Humidity
    00:00 -10°C° 0 mm 3 mps 704 mmHg 90%
    01:00 -10°C° 0 mm 3 mps 703 mmHg 89%
    02:00 -13°C° 0 mm 1 mps 702 mmHg 77%
    03:00 -13°C° 0 mm 2 mps 701 mmHg 91%
    04:00 -12°C° 0 mm 2 mps 701 mmHg 84%
    05:00 -10°C° 0 mm 2 mps 700 mmHg 79%
    06:00 -12°C° 0 mm 3 mps 700 mmHg 78%
    07:00 -12°C° 0 mm 3 mps 699 mmHg 81%
    08:00 -12°C° 0 mm 3 mps 699 mmHg 82%
    09:00 -12°C° 0 mm 3 mps 698 mmHg 86%
    10:00 -9°C° 0 mm 3 mps 698 mmHg 89%
    11:00 -8°C° 0 mm 3 mps 698 mmHg 90%
    12:00 -6°C° 0 mm 3 mps 697 mmHg 89%
    13:00 -5°C° 0 mm 3 mps 696 mmHg 88%
    14:00 -4°C° 0 mm 4 mps 696 mmHg 88%
    15:00 -4°C° 0 mm 4 mps 695 mmHg 88%
    16:00 -4°C° 0 mm 4 mps 694 mmHg 87%
    17:00 -5°C° 0 mm 4 mps 693 mmHg 89%
    18:00 -5°C° 0 mm 4 mps 692 mmHg 92%
    19:00 -5°C° 0 mm 4 mps 691 mmHg 93%
    20:00 -4°C° 0 mm 4 mps 690 mmHg 91%
    21:00 -4°C° 0 mm 3 mps 689 mmHg 88%
    22:00 -2°C° 0 mm 3 mps 689 mmHg 86%
    23:00 -4°C° 0 mm 5 mps 689 mmHg 87%

    Tomorrow, 17 January, Wednesday

    Time Temperature Precipitation Wind Pressure Humidity
    00:00 -2°C° 0 mm 5 mps 689 mmHg 89%
    01:00 -2°C° 0.3 mm 5 mps 689 mmHg 97%
    02:00 -2°C° 0.2 mm 4 mps 689 mmHg 92%
    03:00 -2°C° 0 mm 4 mps 689 mmHg 88%
    04:00 -2°C° 0 mm 4 mps 689 mmHg 87%
    05:00 -2°C° 0.4 mm 3 mps 689 mmHg 100%
    06:00 -2°C° 0.3 mm 3 mps 688 mmHg 99%
    07:00 -2°C° 0 mm 4 mps 688 mmHg 94%
    08:00 -2°C° 0 mm 4 mps 688 mmHg 94%
    09:00 -2°C° 0.2 mm 4 mps 687 mmHg 100%
    10:00 +1°C° 0 mm 2 mps 688 mmHg 93%
    11:00 +3°C° 0 mm 1 mps 687 mmHg 93%
    12:00 +3°C° 0 mm 1 mps 687 mmHg 95%
    13:00 +4°C° 0 mm 1 mps 687 mmHg 98%
    14:00 +1°C° 0 mm 3 mps 687 mmHg 100%
    15:00 +1°C° 0 mm 2 mps 687 mmHg 100%
    16:00 +2°C° 0 mm 1 mps 687 mmHg 100%
    17:00 +1°C° 0 mm 1 mps 686 mmHg 100%
    18:00 +1°C° 0.2 mm 1 mps 686 mmHg 100%
    19:00 +1°C° 0.2 mm 1 mps 686 mmHg 100%
    20:00 +1°C° 0.2 mm 1 mps 686 mmHg 100%
    21:00 +1°C° 0.4 mm 1 mps 686 mmHg 100%
    22:00 -1°C° 0.3 mm 2 mps 687 mmHg 100%
    23:00 -2°C° 0.3 mm 3 mps 687 mmHg 100%

    Day after tomorrow, 18 January, Thursday

    Time Temperature Precipitation Wind Pressure Humidity
    00:00 -4°C° 0.1 mm 4 mps 688 mmHg 100%
    01:00 -5°C° 0.3 mm 4 mps 688 mmHg 100%
    02:00 -5°C° 0 mm 3 mps 688 mmHg 100%
    03:00 -6°C° 0 mm 3 mps 689 mmHg 100%
    04:00 -7°C° 0 mm 3 mps 689 mmHg 99%
    05:00 -6°C° 0 mm 2 mps 689 mmHg 95%
    06:00 -7°C° 0 mm 2 mps 689 mmHg 93%
    07:00 -8°C° 0 mm 2 mps 690 mmHg 89%
    08:00 -8°C° 0 mm 2 mps 690 mmHg 86%
    09:00 -8°C° 0 mm 2 mps 690 mmHg 85%
    10:00 -9°C° 0 mm 3 mps 691 mmHg 84%
    11:00 -7°C° 0 mm 2 mps 692 mmHg 89%
    12:00 -5°C° 0 mm 2 mps 692 mmHg 89%
    13:00 -5°C° 0 mm 4 mps 692 mmHg 89%
    14:00 -4°C° 0 mm 4 mps 693 mmHg 87%
    15:00 -4°C° 0 mm 3 mps 693 mmHg 87%
    16:00 -6°C° 0 mm 5 mps 693 mmHg 85%
    17:00 -8°C° 0 mm 5 mps 693 mmHg 87%
    18:00 -10°C° 0 mm 5 mps 693 mmHg 90%
    19:00 -10°C° 0 mm 5 mps 692 mmHg 88%
    20:00 -9°C° 0 mm 6 mps 691 mmHg 85%
    21:00 -7°C° 0 mm 5 mps 690 mmHg 84%
    22:00 -6°C° 0 mm 5 mps 689 mmHg 85%
    23:00 -6°C° 0 mm 7 mps 689 mmHg 87%

    19 January, Friday

    Time Temperature Precipitation Wind Pressure Humidity
    00:00 -6°C° 0 mm 8 mps 688 mmHg 91%
    01:00 -6°C° 0 mm 7 mps 688 mmHg 93%
    02:00 -5°C° 0.1 mm 6 mps 688 mmHg 94%
    03:00 -4°C° 0.1 mm 6 mps 687 mmHg 95%
    04:00 -3°C° 0 mm 7 mps 687 mmHg 92%
    05:00 -2°C° 0 mm 8 mps 688 mmHg 89%
    06:00 -3°C° 0 mm 10 mps 688 mmHg 90%
    07:00 -3°C° 0 mm 10 mps 688 mmHg 92%
    08:00 -4°C° 0 mm 10 mps 688 mmHg 91%
    09:00 -4°C° 0 mm 10 mps 689 mmHg 89%
    10:00 -3°C° 0 mm 10 mps 689 mmHg 87%
    11:00 -3°C° 0 mm 10 mps 690 mmHg 85%
    12:00 -3°C° 0 mm 9 mps 690 mmHg 84%
    13:00 -3°C° 0 mm 9 mps 690 mmHg 84%
    14:00 -3°C° 0 mm 9 mps 691 mmHg 84%
    15:00 -2°C° 0 mm 8 mps 692 mmHg 84%
    16:00 -2°C° 0 mm 6 mps 692 mmHg 85%
    17:00 -2°C° 0 mm 5 mps 693 mmHg 86%
    18:00 -1°C° 0 mm 2 mps 694 mmHg 86%
    19:00 -1°C° 0 mm 2 mps 694 mmHg 81%
    20:00 -1°C° 0 mm 3 mps 694 mmHg 81%
    21:00 -1°C° 0 mm 2 mps 694 mmHg 85%
    22:00 -1°C° 0 mm 2 mps 694 mmHg 86%
    23:00 -1°C° 0 mm 2 mps 695 mmHg 88%

    20 January, Saturday

    Time Temperature Precipitation Wind Pressure Humidity
    00:00 -4°C° 0 mm 3 mps 695 mmHg 100%
    01:00 -5°C° 0 mm 4 mps 695 mmHg 100%
    02:00 -5°C° 0.1 mm 3 mps 696 mmHg 100%

    21 January, Sunday

    Time Temperature Precipitation Wind Pressure Humidity
    Show more